Date String (YYYY-MM-DD hh:mm:ss) UTC,Instrument flags,absolute air pressure of the measurement (hPa),sample flow rate (lpm),inlet stack bypass flow (lpm),air temperature of the measurement (°C),ambient temperature measured by the external sensor (°C),aerosol sample conditioner tube jacket temperature (°C),OPC LED temperature (°C),internal box temperature (°C),relative humidity of the measurement (%),span deviation,mass concentration of particles derived from Lorenz-Mie calculation of OPC scattering (μg/m³),mass concentration of particles derived from Lorenz-Mie calculation of OPC scattering (μg/m³),mass concentration of particles derived from Lorenz-Mie calculation of OPC scattering (μg/m³)
DateTimeUTC,F1_M11,P_M11,Q1_M11,Q2_M11,T1_M11,T2_M11,T3_M11,T4_M11,T5_M11,U1_M11,ZSPAN_M11,X0_M11,X2_M11,X1_M11
2023-08-22 23:00:00,SystemResetWarning,0833.9,5.00,000.00,027.6,025.7,000.0,035.8,029.4,21.9,0001.3,0017.72,0008.22,0007.19
2023-08-22 23:01:00,SystemResetWarning,0833.9,4.99,000.00,027.6,026.2,000.0,035.8,029.5,21.8,0001.3,0018.54,0008.20,0007.18
2023-08-22 23:02:00,SystemResetWarning,0833.9,5.00,000.00,027.7,026.2,000.0,035.9,029.5,21.9,0001.4,0018.65,0008.18,0007.17
2023-08-22 23:03:00,SystemResetWarning,0833.9,4.99,000.00,027.7,024.9,000.0,035.8,029.2,22.5,0001.3,0017.95,0008.17,0007.16
2023-08-22 23:04:00,SystemResetWarning,0833.9,5.01,000.00,027.6,024.1,000.0,035.7,029.0,22.8,0000.8,0016.70,0008.15,0007.14
2023-08-22 23:05:00,SystemResetWarning,0833.9,5.01,000.00,027.5,024.5,000.0,035.7,029.0,23.1,0000.5,0016.31,0008.11,0007.11
2023-08-22 23:06:00,SystemResetWarning,0833.8,4.99,000.00,027.5,024.9,000.0,035.8,029.0,22.8,0000.4,0015.98,0008.11,0007.08
2023-08-22 23:07:00,SystemResetWarning,0833.8,5.00,000.00,027.5,025.3,000.0,035.8,029.2,22.9,0000.4,0016.13,0008.05,0007.04
2023-08-22 23:08:00,SystemResetWarning,0833.9,5.00,000.00,027.6,025.8,000.0,035.8,029.4,23.1,0000.7,0016.61,0008.00,0006.95
2023-08-22 23:09:00,SystemResetWarning,0833.9,5.00,000.00,027.7,026.2,000.0,035.9,029.5,23.3,0000.9,0018.50,0007.99,0006.84
2023-08-22 23:10:00,SystemResetWarning,0833.9,4.98,000.00,027.7,025.4,000.0,035.8,029.3,23.6,0001.1,0020.41,0008.00,0006.73
2023-08-22 23:11:00,SystemResetWarning,0833.9,5.01,000.00,027.6,024.0,000.0,035.7,029.0,23.5,0001.8,0022.13,0007.98,0006.63
2023-08-22 23:12:00,SystemResetWarning,0833.9,5.01,000.00,027.5,024.1,000.0,035.7,029.0,22.9,0001.7,0022.23,0007.86,0006.52
2023-08-22 23:13:00,SystemResetWarning,0833.8,4.99,000.00,027.5,024.5,000.0,035.7,029.0,22.8,0001.6,0022.38,0007.73,0006.38
2023-08-22 23:14:00,SystemResetWarning,0833.8,5.00,000.00,027.5,024.9,000.0,035.7,029.1,23.5,0001.5,0022.95,0007.64,0006.31
2023-08-22 23:15:00,SystemResetWarning,0833.9,5.00,000.00,027.5,025.4,000.0,035.8,029.2,23.6,0002.1,0023.16,0007.59,0006.25
2023-08-22 23:16:00,SystemResetWarning,0833.9,5.01,000.00,027.6,025.8,000.0,035.8,029.4,23.3,0002.3,0023.14,0007.50,0006.19
2023-08-22 23:17:00,SystemResetWarning,0833.9,4.99,000.00,027.6,025.8,000.0,035.8,029.4,22.9,0002.4,0023.04,0007.44,0006.14
2023-08-22 23:18:00,SystemResetWarning,0833.9,4.99,000.00,027.6,024.4,000.0,035.7,029.0,23.4,0002.2,0022.37,0007.39,0006.10
2023-08-22 23:19:00,SystemResetWarning,0833.9,5.01,000.00,027.5,023.8,000.0,035.6,028.9,23.2,0002.1,0021.90,0007.26,0006.06
2023-08-22 23:20:00,SystemResetWarning,0833.9,5.02,000.00,027.4,024.2,000.0,035.6,028.9,23.3,0001.8,0019.67,0007.11,0006.02
2023-08-22 23:21:00,SystemResetWarning,0833.9,5.00,000.00,027.4,024.6,000.0,035.7,029.0,22.9,0001.6,0017.83,0006.93,0005.98
2023-08-22 23:22:00,SystemResetWarning,0833.9,5.00,000.00,027.4,025.0,000.0,035.7,029.1,22.8,0001.3,0014.88,0006.74,0005.93
2023-08-22 23:23:00,SystemResetWarning,0833.9,5.00,000.00,027.5,025.5,000.0,035.8,029.2,23.0,0001.5,0013.38,0006.60,0005.84
2023-08-22 23:24:00,SystemResetWarning,0833.9,5.00,000.00,027.5,025.9,000.0,035.8,029.4,22.6,0001.9,0012.53,0006.50,0005.80
2023-08-22 23:25:00,SystemResetWarning,0833.9,5.00,000.00,027.6,025.9,000.0,035.8,029.3,22.5,0002.1,0011.63,0006.33,0005.70
2023-08-22 23:26:00,SystemResetWarning,0833.8,4.99,000.00,027.5,024.5,000.0,035.7,029.0,22.9,0001.5,0011.53,0006.20,0005.58
2023-08-22 23:27:00,SystemResetWarning,0833.8,5.02,000.00,027.5,023.8,000.0,035.6,028.9,23.1,0001.5,0011.90,0006.07,0005.47
2023-08-22 23:28:00,SystemResetWarning,0833.8,5.00,000.00,027.4,024.2,000.0,035.6,028.9,23.0,0001.6,0012.20,0005.94,0005.35
2023-08-22 23:29:00,SystemResetWarning,0833.8,5.00,000.00,027.4,024.6,000.0,035.7,029.0,22.7,0001.4,0012.45,0005.81,0005.23
2023-08-22 23:30:00,SystemResetWarning,0833.8,5.00,000.00,027.4,025.1,000.0,035.7,029.1,22.6,0001.3,0012.53,0005.75,0005.15
2023-08-22 23:31:00,SystemResetWarning,0833.8,5.00,000.00,027.5,025.6,000.0,035.7,029.2,22.7,0001.3,0012.60,0005.71,0005.10
2023-08-22 23:32:00,SystemResetWarning,0833.8,5.00,000.00,027.5,026.0,000.0,035.8,029.4,22.6,0001.2,0012.82,0005.68,0005.09
2023-08-22 23:33:00,SystemResetWarning,0833.8,5.00,000.00,027.6,025.9,000.0,035.8,029.3,23.1,0001.4,0013.42,0005.69,0005.09
2023-08-22 23:34:00,SystemResetWarning,0833.8,4.98,000.00,027.5,024.5,000.0,035.7,029.0,23.5,0001.5,0013.41,0005.72,0005.11
2023-08-22 23:35:00,SystemResetWarning,0833.8,5.01,000.00,027.5,023.9,000.0,035.6,028.9,23.6,0001.3,0013.58,0005.75,0005.11
2023-08-22 23:36:00,SystemResetWarning,0833.8,5.01,000.00,027.4,024.2,000.0,035.6,028.9,23.8,0001.1,0013.44,0005.77,0005.11
2023-08-22 23:37:00,SystemResetWarning,0833.8,5.00,000.00,027.4,024.6,000.0,035.7,029.0,23.0,0001.3,0012.84,0005.76,0005.12
2023-08-22 23:38:00,SystemResetWarning,0833.8,5.00,000.00,027.4,025.1,000.0,035.7,029.1,22.8,0001.2,0012.23,0005.80,0005.15
2023-08-22 23:39:00,SystemResetWarning,0833.9,5.00,000.00,027.5,025.6,000.0,035.7,029.2,22.6,0001.1,0011.57,0005.77,0005.17
2023-08-22 23:40:00,SystemResetWarning,0833.8,4.99,000.00,027.5,026.0,000.0,035.8,029.4,22.6,0001.2,0011.86,0005.80,0005.19
2023-08-22 23:41:00,SystemResetWarning,0833.8,4.99,000.00,027.6,026.0,000.0,035.8,029.3,22.3,0001.2,0011.53,0005.81,0005.20
2023-08-22 23:42:00,SystemResetWarning,0833.8,4.98,000.00,027.5,024.5,000.0,035.7,029.0,22.3,0001.7,0011.53,0005.80,0005.20
2023-08-22 23:43:00,SystemResetWarning,0833.8,5.01,000.00,027.5,023.9,000.0,035.6,028.9,22.6,0002.1,0011.36,0005.79,0005.20
2023-08-22 23:44:00,SystemResetWarning,0833.8,5.01,000.00,027.4,024.2,000.0,035.6,028.9,22.9,0001.6,0010.69,0005.79,0005.21
2023-08-22 23:45:00,SystemResetWarning,0833.8,4.99,000.00,027.4,024.6,000.0,035.6,029.0,23.2,0001.1,0010.73,0005.76,0005.21
2023-08-22 23:46:00,SystemResetWarning,0833.8,5.00,000.00,027.4,025.1,000.0,035.7,029.1,23.0,0000.8,0011.06,0005.82,0005.24
2023-08-22 23:47:00,SystemResetWarning,0833.8,5.01,000.00,027.5,025.6,000.0,035.7,029.2,23.3,0000.6,0011.86,0005.87,0005.28
2023-08-22 23:48:00,SystemResetWarning,0833.8,5.00,000.00,027.5,026.0,000.0,035.8,029.4,23.0,0000.6,0012.54,0005.92,0005.31
2023-08-22 23:49:00,SystemResetWarning,0833.8,4.98,000.00,027.6,025.9,000.0,035.7,029.4,22.6,0000.6,0014.70,0006.01,0005.33
2023-08-22 23:50:00,SystemResetWarning,0833.7,5.00,000.00,027.5,024.5,000.0,035.7,029.0,23.0,0000.5,0015.35,0006.12,0005.36
2023-08-22 23:51:00,SystemResetWarning,0833.7,5.01,000.00,027.4,023.9,000.0,035.6,028.9,23.0,0000.3,0015.25,0006.15,0005.39
2023-08-22 23:52:00,SystemResetWarning,0833.7,5.00,000.00,027.4,024.2,000.0,035.6,028.8,23.1,0000.2,0015.56,0006.24,0005.41
2023-08-22 23:53:00,SystemResetWarning,0833.7,5.00,000.00,027.4,024.6,000.0,035.6,028.9,22.8,-000.2,0015.84,0006.27,0005.43
2023-08-22 23:54:00,SystemResetWarning,0833.7,5.00,000.00,027.4,025.1,000.0,035.7,029.1,23.2,-000.9,0015.77,0006.31,0005.45
2023-08-22 23:55:00,SystemResetWarning,0833.7,5.00,000.00,027.5,025.5,000.0,035.7,029.2,24.3,-000.5,0016.11,0006.35,0005.46
2023-08-22 23:56:00,SystemResetWarning,0833.7,5.00,000.00,027.5,025.9,000.0,035.7,029.3,23.9,-000.2,0016.35,0006.42,0005.49
2023-08-22 23:57:00,SystemResetWarning,0833.7,4.99,000.00,027.6,026.3,000.0,035.8,029.4,22.2,-000.2,0016.18,0006.45,0005.51
2023-08-22 23:58:00,SystemResetWarning,0833.7,4.98,000.00,027.6,025.5,000.0,035.7,029.2,22.7,-000.2,0015.66,0006.43,0005.53
2023-08-22 23:59:00,SystemResetWarning,0833.7,5.01,000.00,027.5,024.1,000.0,035.6,028.9,23.0,0000.1,0015.65,0006.44,0005.54
